Weather History for Moline, IL

Change the Weather History Date:

Tuesday, November 8, 2011

  Actual Average Record
Temperature  
Mean Temperature 45 °F 44 °F  
Max Temperature 47 °F 54 °F 79 °F (1999)
Min Temperature 43 °F 35 °F 5 °F (1991)
Degree Days  
Heating Degree Days 20 21  
Month to date heating degree days 135 154  
Since 1 July heating degree days 649 636  
Cooling Degree Days 0 0  
Month to date cooling degree days 0 0  
Year to date cooling degree days 1126 1003  
Moisture  
Dew Point 42 °F    
Average Humidity 90    
Maximum Humidity 93    
Minimum Humidity 86    
Precipitation  
Precipitation 1.22 in 0.08 in 1.22 in (2011)
Month to date precipitation 2.64 0.72  
Year to date precipitation 30.37 33.94  
Snow  
Snow 0.00 in 0.00 in - ()
Month to date snowfall 0.0 0.1  
Since 1 July snowfall 0.0 0.1  
Since 1 September snowfall 0.0 0.1  
Snow Depth 0.00 in    
Sea Level Pressure  
Sea Level Pressure 29.99 in    
Wind  
Wind Speed 12 mph (NE)    
Max Wind Speed 26 mph    
Max Gust Speed 35 mph    
Visibility 6 miles    
Events Rain    
T = Trace of Precipitation, MM = Missing Value Source: NWS Daily Summary

Daily Weather History Graph

Daily Weather History Graph

Search for Another Location

Airport:

Trip Planner

Search our weather history database for the weather conditions in past years. The results will help you decide how hot, cold, wet, or windy it might be!

Date:

Astronomy

Nov. 08, 2011 Rise Set
Actual Time 6:41 AM CST 4:49 PM CST
Civil Twilight 6:12 AM CST 5:18 PM CST
Nautical Twilight 5:39 AM CST 5:51 PM CST
Astronomical Twilight 5:07 AM CST 6:23 PM CST
Moon 3:29 PM CST (11/8) 4:40 AM CST (11/8)
Length of Visible Light 11h 05m
Length of Day
10h 07m
Waxing Gibbous, 96% of the Moon is Illuminated
Nov 8
Waxing Gibbous
Nov 10
Full
Nov 18
Last Quarter
Nov 25
New
Dec 2
First Quarter

Hourly Weather History & Observations

Time (CST) Temp. Windchill Dew Point Humidity Pressure Visibility Wind Dir Wind Speed Gust Speed Precip Events Conditions
12:52 AM 46.0 °F 39.9 °F 43.0 °F 89% 30.09 in 4.0 mi NE 13.8 mph - 0.09 in Rain Heavy Rain
1:21 AM 46.4 °F 40.7 °F 44.6 °F 93% 30.09 in 2.5 mi ENE 12.7 mph - 0.12 in Rain Heavy Rain
1:36 AM 46.4 °F 40.7 °F 44.6 °F 93% 30.07 in 2.5 mi NE 12.7 mph - 0.20 in Rain Heavy Rain
1:44 AM 46.4 °F 40.1 °F 44.6 °F 93% 30.07 in 3.0 mi ENE 15.0 mph - 0.22 in Rain Rain
1:52 AM 46.0 °F 40.2 °F 44.1 °F 93% 30.08 in 4.0 mi ENE 12.7 mph - 0.23 in Rain Rain
2:52 AM 45.0 °F 37.9 °F 42.1 °F 90% 30.05 in 4.0 mi ENE 16.1 mph 25.3 mph 0.11 in Rain Rain
3:52 AM 44.1 °F 35.4 °F 41.0 °F 89% 30.01 in 6.0 mi ENE 21.9 mph 28.8 mph 0.26 in Rain Rain
3:59 AM 44.6 °F 37.4 °F 41.0 °F 87% 30.00 in 6.0 mi ENE 16.1 mph 28.8 mph 0.02 in Rain Rain
4:52 AM 44.1 °F 37.7 °F 42.1 °F 93% 30.01 in 6.0 mi ENE 12.7 mph - 0.17 in Rain Rain
5:21 AM 44.6 °F 39.7 °F 42.8 °F 93% 30.00 in 5.0 mi ENE 9.2 mph 19.6 mph 0.09 in Rain Rain
5:52 AM 45.0 °F 37.9 °F 42.1 °F 90% 30.00 in 6.0 mi NE 16.1 mph 24.2 mph 0.12 in Rain Light Rain
6:04 AM 44.6 °F 37.2 °F 42.8 °F 93% 29.99 in 5.0 mi ENE 17.3 mph 27.6 mph 0.02 in Rain Light Rain
6:33 AM 44.6 °F 37.4 °F 42.8 °F 93% 29.98 in 6.0 mi ENE 16.1 mph - 0.05 in Rain Rain
6:52 AM 44.1 °F 36.8 °F 42.1 °F 93% 29.98 in 7.0 mi ENE 16.1 mph - 0.07 in Rain Light Rain
7:52 AM 44.1 °F 36.2 °F 42.1 °F 93% 29.95 in 6.0 mi ENE 18.4 mph - 0.03 in Rain Light Rain
8:52 AM 44.1 °F 38.1 °F 42.1 °F 93% 30.00 in 10.0 mi NNE 11.5 mph - 0.00 in   Overcast
9:23 AM 44.6 °F 39.7 °F 41.0 °F 87% 29.98 in 2.0 mi NNE 9.2 mph - N/A   Overcast
9:52 AM 44.1 °F 40.8 °F 42.1 °F 93% 30.00 in 1.5 mi North 5.8 mph - N/A   Overcast
10:52 AM 44.1 °F 39.0 °F 42.1 °F 93% 30.00 in 1.5 mi NNE 9.2 mph - 0.02 in Rain Light Rain
10:59 AM 44.6 °F 39.7 °F 42.8 °F 93% 29.98 in 2.0 mi NNE 9.2 mph - 0.00 in Rain Light Rain
11:21 AM 44.6 °F 40.2 °F 42.8 °F 93% 29.98 in 8.0 mi NNE 8.1 mph - 0.00 in   Overcast
11:52 AM 45.0 °F 40.1 °F 42.1 °F 90% 29.98 in 10.0 mi NNE 9.2 mph - 0.00 in   Overcast
12:52 PM 44.1 °F 39.5 °F 41.0 °F 89% 29.98 in 10.0 mi NNE 8.1 mph - N/A   Overcast
1:52 PM 44.1 °F 39.5 °F 41.0 °F 89% 29.99 in 10.0 mi North 8.1 mph - N/A   Overcast
2:52 PM 45.0 °F 41.8 °F 41.0 °F 86% 29.99 in 10.0 mi North 5.8 mph - N/A   Overcast
3:52 PM 44.6 °F 40.2 °F 41.0 °F 87% 29.97 in 10.0 mi NE 8.1 mph 17.3 mph N/A   Overcast
4:52 PM 44.6 °F 38.8 °F 41.0 °F 87% 29.98 in 10.0 mi NE 11.5 mph - N/A   Overcast
5:52 PM 44.1 °F 38.6 °F 41.0 °F 89% 30.00 in 9.0 mi ENE 10.4 mph - N/A   Overcast
6:52 PM 44.1 °F 37.4 °F 41.0 °F 89% 29.99 in 8.0 mi NE 13.8 mph - 0.01 in Rain Light Rain
7:52 PM 44.1 °F 38.1 °F 41.0 °F 89% 29.98 in 9.0 mi NE 11.5 mph - 0.00 in   Overcast
8:52 PM 44.1 °F 37.7 °F 42.1 °F 93% 29.97 in 4.0 mi ENE 12.7 mph - 0.02 in Rain Light Rain
9:52 PM 44.1 °F 37.7 °F 42.1 °F 93% 29.93 in 5.0 mi ENE 12.7 mph - 0.02 in Rain Light Rain
10:52 PM 44.1 °F 38.6 °F 42.1 °F 93% 29.90 in 4.0 mi NE 10.4 mph - 0.02 in Rain Light Rain
11:52 PM 44.1 °F 37.1 °F 42.1 °F 93% 29.86 in 4.0 mi ENE 15.0 mph - 0.05 in Rain Light Rain